Flag for U.S.A. Weather past 2 weeks in Macon, Georgia, U.S.A.

Now
78 °F

Mostly cloudy.


Feels Like: 81 °F
Forecast: 69 / 88 °F
Wind: 6 mph from East

Location: Middle Georgia Regional Airport

Current Time: Jul 22, 2014 at 8:19:49 PM

Latest Report: Jul 22, 2014 at 12:53 PM


Visibility: 10 mi

Pressure: 30.11 "Hg

Humidity: 84%

Dew point: 73 °F

Location of MaconLocation

Historic Weather in Macon — Graph

°F

Macon temperature yesterday

Maximum temperature yesterday: 82 °F (at 4:53 PM)
Minimum temperature yesterday: 71 °F (at 11:53 PM)
Average temperature yesterday: 75 °F

Past Weeks' High & Low Weather Summary

 TemperatureHumidityPressure
High91 °F (Jul 14, 1:53 PM)100% (Jul 12, 12:53 AM)30.19 "Hg (Jul 12, 12:53 AM)
Low59 °F (Jul 17, 4:53 AM)29% (Jul 16, 4:53 PM)29.81 "Hg (Jul 15, 6:53 PM)
Average77 °F83%30.02 "Hg
* Reported Jul 7 12:53 PM — Jul 22 12:53 PM, Macon, Weather by CustomWeather, © 2014

Note: Actual official high and low records may vary slightly from our data, if they occured in-between our weather recording intervals... More about our weather records

Advertising

Macon weather history for previous 24 hours

 ConditionsComfort  
Time TempWeatherWind HumidityBarometerVisibility
12:53 PM
Jul 22
78 °FMostly cloudy.6 mph84%30.11 "Hg10 mi
11:53 AM75 °FMore clouds than sun.No wind90%30.11 "Hg10 mi
10:53 AM74 °FLow clouds.3 mph94%30.12 "Hg10 mi
9:53 AM73 °FLow clouds.5 mph97%30.12 "Hg10 mi
8:53 AM71 °FLow clouds.3 mph100%30.13 "Hg10 mi
7:53 AM71 °FMostly cloudy.3 mph100%30.11 "Hg10 mi
6:53 AM70 °FMostly cloudy.No wind100%30.08 "Hg10 mi
5:53 AM70 °FLow clouds.6 mph100%30.06 "Hg10 mi
4:53 AM71 °FMostly cloudy.6 mph100%30.05 "Hg10 mi
3:53 AM71 °FLow clouds.No wind100%30.04 "Hg10 mi
3:02 AM72 °FPassing clouds.No wind100%30.05 "Hg10 mi
2:53 AM71 °FPassing clouds.No wind100%30.03 "Hg10 mi
1:53 AM71 °FPassing clouds.3 mph100%30.04 "Hg10 mi
12:53 AM71 °FLight rain. Passing clouds.No wind100%30.07 "Hg10 mi
11:53 PM
Jul 21
71 °FLight rain. Passing clouds.No wind100%30.09 "Hg10 mi
10:53 PM72 °FLight rain. Passing clouds.7 mph100%30.09 "Hg10 mi
9:53 PM74 °FPassing clouds.5 mph100%30.06 "Hg10 mi
8:53 PM74 °FLight rain. Broken clouds.No wind100%30.04 "Hg10 mi
Weather by CustomWeather, © 2014

See weather overviewHow to use our weather pages